| time (UTC) | temp C | wind direction | speed KPH | gust KPH | rain 1hr cm | rain 24hr cm | rain mn cm | humidity % | barometer mb |
| 20260506203513 | 8 | 202 | 4.8 | 14.5 | 0.00 | 0.00 | 0.00 | 79 | 1012.7 |
| 20260506202513 | 8 | 198 | 6.4 | 14.5 | 0.00 | 0.00 | 0.00 | 78 | 1012.6 |
| 20260506201513 | 8 | 192 | 6.4 | 12.9 | 0.00 | 0.00 | 0.00 | 77 | 1012.6 |
| 20260506194512 | 9 | 170 | 4.8 | 16.1 | 0.00 | 0.00 | 0.00 | 74 | 1012.4 |
| 20260506193513 | 10 | 184 | 6.4 | 16.1 | 0.00 | 0.00 | 0.00 | 73 | 1012.2 |
| 20260506191512 | 10 | 177 | 9.7 | 14.5 | 0.00 | 0.00 | 0.00 | 69 | 1012.0 |
| 20260506183514 | 11 | 194 | 11.3 | 19.3 | 0.00 | 0.00 | 0.00 | 60 | 1011.6 |
| 20260506181513 | 11 | 200 | 8.0 | 16.1 | 0.00 | 0.00 | 0.00 | 58 | 1011.3 |
| 20260506175512 | 12 | 205 | 11.3 | 14.5 | 0.00 | 0.00 | 0.00 | 54 | 1011.1 |
| 20260506171512 | 13 | 204 | 9.7 | 19.3 | 0.00 | 0.00 | 0.00 | 54 | 1010.9 |
| 20260506170513 | 13 | 210 | 11.3 | 16.1 | 0.00 | 0.00 | 0.00 | 55 | 1010.9 |
| 20260506164512 | 13 | 226 | 11.3 | 16.1 | 0.00 | 0.00 | 0.00 | 58 | 1010.9 |
| 20260506160512 | 13 | 57 | 6.4 | 19.3 | 0.00 | 0.00 | 0.00 | 59 | 1010.7 |
| 20260506153512 | 13 | 12 | 8.0 | 19.3 | 0.00 | 0.00 | 0.00 | 61 | 1010.8 |
| 20260506152512 | 14 | 19 | 4.8 | 16.1 | 0.00 | 0.00 | 0.00 | 59 | 1010.7 |
| 20260506145512 | 15 | 357 | 8.0 | 16.1 | 0.00 | 0.00 | 0.00 | 56 | 1010.7 |
| 20260506144513 | 15 | 2 | 8.0 | 16.1 | 0.00 | 0.00 | 0.00 | 54 | 1010.7 |
| 20260506143512 | 15 | 15 | 6.4 | 19.3 | 0.00 | 0.00 | 0.00 | 58 | 1010.7 |
| 20260506142512 | 14 | 7 | 11.3 | 20.9 | 0.00 | 0.00 | 0.00 | 59 | 1010.7 |
| 20260506140512 | 15 | 11 | 4.8 | 20.9 | 0.00 | 0.00 | 0.00 | 60 | 1010.6 |
| 20260506133513 | 14 | 12 | 8.0 | 22.5 | 0.00 | 0.00 | 0.00 | 59 | 1010.4 |
| 20260506131513 | 15 | 354 | 8.0 | 20.9 | 0.00 | 0.00 | 0.00 | 58 | 1010.4 |
| 20260506125513 | 16 | 357 | 11.3 | 22.5 | 0.00 | 0.00 | 0.00 | 56 | 1010.3 |
| 20260506123513 | 15 | 357 | 12.9 | 24.1 | 0.00 | 0.00 | 0.00 | 53 | 1010.2 |
| 20260506121513 | 16 | 7 | 9.7 | 25.7 | 0.00 | 0.00 | 0.00 | 55 | 1010.3 |
| 20260506113514 | 16 | 0 | 8.0 | 16.1 | 0.00 | 0.00 | 0.00 | 53 | 1010.4 |
| 20260506112513 | 15 | 358 | 4.8 | 16.1 | 0.00 | 0.00 | 0.00 | 55 | 1010.5 |
| 20260506110512 | 15 | 18 | 4.8 | 19.3 | 0.00 | 0.00 | 0.00 | 55 | 1010.6 |
| 20260506104512 | 15 | 60 | 8.0 | 14.5 | 0.00 | 0.00 | 0.00 | 53 | 1010.6 |
| 20260506103513 | 14 | 33 | 8.0 | 19.3 | 0.00 | 0.00 | 0.00 | 55 | 1010.6 |
| 20260506102513 | 15 | 25 | 8.0 | 19.3 | 0.00 | 0.00 | 0.00 | 54 | 1010.7 |
| 20260506100512 | 15 | 8 | 8.0 | 16.1 | 0.00 | 0.00 | 0.00 | 55 | 1010.8 |
| 20260506095513 | 14 | 351 | 8.0 | 16.1 | 0.00 | 0.00 | 0.00 | 57 | 1010.7 |
| 20260506094512 | 14 | 20 | 4.8 | 14.5 | 0.00 | 0.00 | 0.00 | 58 | 1010.8 |
| 20260506092513 | 13 | 5 | 6.4 | 16.1 | 0.00 | 0.00 | 0.00 | 53 | 1010.8 |
| 20260506091513 | 15 | 333 | 8.0 | 14.5 | 0.00 | 0.00 | 0.00 | 51 | 1010.8 |
| 20260506090512 | 15 | 347 | 4.8 | 14.5 | 0.00 | 0.00 | 0.00 | 51 | 1010.7 |
| 20260506085512 | 15 | 27 | 9.7 | 20.9 | 0.00 | 0.00 | 0.00 | 49 | 1010.7 |
| 20260506084513 | 15 | 18 | 8.0 | 14.5 | 0.00 | 0.00 | 0.00 | 45 | 1010.7 |
| 20260506083512 | 15 | 19 | 6.4 | 14.5 | 0.00 | 0.00 | 0.00 | 48 | 1010.7 |
| 20260506081513 | 15 | 42 | 4.8 | 14.5 | 0.00 | 0.00 | 0.00 | 46 | 1010.6 |
| 20260506073513 | 13 | 41 | 6.4 | 19.3 | 0.00 | 0.00 | 0.00 | 48 | 1010.7 |
| 20260506070512 | 13 | 18 | 4.8 | 12.9 | 0.00 | 0.00 | 0.00 | 50 | 1010.7 |
| 20260506061513 | 11 | 38 | 4.8 | 12.9 | 0.00 | 0.00 | 0.00 | 56 | 1010.9 |
| 20260506060512 | 11 | 57 | 8.0 | 19.3 | 0.00 | 0.00 | 0.00 | 54 | 1011.0 |
| 20260506044512 | 7 | 24 | 3.2 | 9.7 | 0.00 | 0.00 | 0.00 | 74 | 1011.0 |
| 20260506043513 | 6 | 19 | 1.6 | 4.8 | 0.00 | 0.00 | 0.00 | 79 | 1011.0 |
| 20260506041513 | 3 | 25 | 0.0 | 0.0 | 0.00 | 0.00 | 0.00 | 79 | 1011.0 |
| 20260506040513 | 3 | 29 | 0.0 | 1.6 | 0.00 | 0.00 | 0.00 | 77 | 1010.9 |
| 20260506035513 | 3 | 30 | 0.0 | 1.6 | 0.00 | 0.00 | 0.00 | 76 | 1010.8 |
| 20260506034513 | 3 | 30 | 0.0 | 3.2 | 0.00 | 0.00 | 0.00 | 75 | 1010.9 |
| 20260506033512 | 3 | 30 | 0.0 | 4.8 | 0.00 | 0.00 | 0.00 | 74 | 1011.0 |
| 20260506032513 | 3 | 38 | 3.2 | 4.8 | 0.00 | 0.00 | 0.00 | 74 | 1011.0 |
| 20260506031512 | 3 | 20 | 0.0 | 4.8 | 0.00 | 0.00 | 0.00 | 73 | 1011.0 |
| 20260506030513 | 4 | 10 | 1.6 | 4.8 | 0.00 | 0.00 | 0.00 | 71 | 1011.1 |
| 20260506023512 | 5 | 42 | 3.2 | 9.7 | 0.00 | 0.00 | 0.00 | 71 | 1011.2 |
| 20260506022513 | 5 | 31 | 1.6 | 8.0 | 0.00 | 0.00 | 0.00 | 72 | 1011.3 |
| 20260506020513 | 6 | 55 | 0.0 | 4.8 | 0.00 | 0.00 | 0.00 | 68 | 1011.4 |
| 20260506015513 | 6 | 53 | 1.6 | 9.7 | 0.00 | 0.00 | 0.00 | 66 | 1011.5 |
| 20260506003513 | 6 | 20 | 3.2 | 11.3 | 0.00 | 0.00 | 0.00 | 75 | 1011.0 |
| 20260506000512 | 6 | 44 | 4.8 | 11.3 | 0.00 | 0.00 | 0.00 | 79 | 1010.9 |
| 20260505235513 | 6 | 33 | 4.8 | 9.7 | 0.00 | 0.00 | 0.00 | 81 | 1011.0 |
| 20260505232512 | 5 | 33 | 3.2 | 11.3 | 0.00 | 0.00 | 0.00 | 86 | 1011.0 |
| 20260505231513 | 5 | 28 | 1.6 | 8.0 | 0.00 | 0.00 | 0.00 | 87 | 1011.0 |
| 20260505230512 | 5 | 3 | 1.6 | 4.8 | 0.00 | 0.00 | 0.00 | 87 | 1011.1 |
| 20260505225512 | 5 | 22 | 1.6 | 4.8 | 0.00 | 0.00 | 0.00 | 87 | 1011.1 |
| 20260505221509 | 5 | 5 | 1.6 | 8.0 | 0.00 | 0.00 | 0.00 | 88 | 1011.2 |
| 20260505214514 | 4 | 9 | 1.6 | 4.8 | 0.00 | 0.00 | 0.00 | 88 | 1011.3 |
| 20260505213512 | 4 | 5 | 1.6 | 4.8 | 0.00 | 0.00 | 0.00 | 87 | 1011.3 |
| 20260505210513 | 4 | 349 | 1.6 | 3.2 | 0.00 | 0.00 | 0.00 | 84 | 1011.5 |
| 20260505205512 | 5 | 349 | 1.6 | 3.2 | 0.00 | 0.00 | 0.00 | 83 | 1011.4 |